DW8102 Weather Reports


Display with metric or nautical units.
time (UTC)temp
F
wind
direction
speed
MPH
gust
MPH
rain 1hr
in
rain 24hr
in
rain mn
in
humidity
%
barometer
mb
20240227043055 0 0.0 0.0 0.00 0.01 0.00 1017.9
20240227041555 0 0.0 0.0 0.00 0.01 0.00 1018.1
20240227040043 0 0.0 0.0 0.00 0.01 0.00 1018.1
20240227034539 0 0.0 0.0 0.00 0.01 0.00 1018.1
20240227033042 0 0.0 0.0 0.00 0.01 0.00 1018.0
20240227031532 0 0.0 0.0 0.00 0.01 0.00 1017.9
20240227030026 0 0.0 0.0 0.00 0.01 0.00 1018.0
20240227024523 0 0.0 0.0 0.00 0.01 0.00 1018.0
20240227023018 0 0.0 0.0 0.00 0.01 0.00 1017.9
20240227021517 32 319 0.0 0.0 0.00 0.01 0.00 98 1017.9
20240227020019 31 319 0.0 0.0 0.00 0.01 0.00 98 1017.8
20240227014516 31 319 0.0 0.0 0.00 0.01 0.00 98 1017.8
20240227013015 32 319 0.0 0.0 0.00 0.01 0.00 98 1017.8
20240227011515 32 319 0.0 2.0 0.00 0.01 0.00 98 1017.9
20240227010018 32 319 0.0 1.0 0.00 0.01 0.00 98 1018.0
20240227004512 32 319 0.0 0.0 0.00 0.01 0.00 98 1017.9
20240227003020 32 319 0.0 0.0 0.00 0.01 0.00 98 1017.9
20240227001515 32 319 0.0 0.0 0.00 0.01 0.00 98 1017.9
20240227000011 32 319 0.0 0.0 0.00 0.01 0.00 98 1017.8
20240226234514 32 319 0.0 1.0 0.00 0.01 0.00 98 1017.5
20240226233012 32 319 0.0 1.0 0.00 0.01 0.00 98 1017.4
20240226231506 32 319 0.0 1.0 0.00 0.01 0.00 98 1017.3
20240226230012 33 323 0.0 1.0 0.00 0.01 0.00 98 1017.4
20240226224512 33 307 0.0 3.0 0.00 0.01 0.00 98 1017.3
20240226223001 33 276 0.0 1.0 0.00 0.01 0.00 98 1017.2
20240226221559 33 272 0.0 0.0 0.00 0.01 0.00 98 1017.0
20240226220106 33 314 0.0 1.0 0.00 0.01 0.00 98 1016.8
20240226214557 34 323 0.0 1.0 0.00 0.01 0.01 98 1016.8
20240226213054 34 285 0.0 1.0 0.00 0.01 0.01 97 1016.7
20240226211602 34 347 0.0 0.0 0.00 0.01 0.01 98 1016.5
20240226210052 34 347 0.0 0.0 0.00 0.01 0.01 98 1016.3
20240226204559 35 347 0.0 0.0 0.00 0.01 0.01 98 1016.2
20240226203050 35 347 0.0 0.0 0.00 0.01 0.01 98 1016.1
20240226201549 35 347 0.0 0.0 0.00 0.01 0.01 98 1015.8
20240226200057 35 347 0.0 0.0 0.00 0.01 0.01 98 1015.8
20240226194546 35 347 0.0 1.0 0.00 0.01 0.01 98 1015.6
20240226193044 35 347 0.0 0.0 0.00 0.01 0.01 98 1015.5
20240226191543 35 347 0.0 0.0 0.00 0.01 0.01 98 1015.4
20240226190049 35 347 0.0 0.0 0.00 0.01 0.01 98 1015.3
20240226184551 35 347 0.0 0.0 0.00 0.01 0.01 98 1015.3
20240226183048 35 347 0.0 0.0 0.00 0.01 0.01 98 1015.2
20240226181541 35 347 0.0 0.0 0.00 0.01 0.01 98 1015.0
20240226180037 35 347 0.0 0.0 0.00 0.01 0.01 97 1014.8
20240226174542 35 347 0.0 0.0 0.00 0.01 0.01 97 1014.6
20240226173034 35 347 0.0 0.0 0.00 0.01 0.01 97 1014.4
20240226171532 35 347 0.0 0.0 0.00 0.01 0.01 97 1014.2
20240226170132 35 347 0.0 0.0 0.00 0.01 0.01 97 1014.1
20240226164528 35 347 0.0 0.0 0.00 0.01 0.01 96 1013.8
20240226163026 36 347 0.0 0.0 0.00 0.01 0.01 97 1013.6
20240226161529 36 347 0.0 0.0 0.00 0.01 0.01 97 1013.5
20240226160023 36 347 0.0 0.0 0.00 0.01 0.01 97 1013.2
20240226154520 37 347 0.0 0.0 0.00 0.01 0.01 96 1013.0
20240226153023 37 347 0.0 0.0 0.00 0.01 0.01 96 1012.7
20240226151520 38 347 0.0 0.0 0.00 0.01 0.01 96 1012.4
20240226150021 38 347 0.0 1.0 0.00 0.01 0.01 96 1012.4
20240226144520 38 325 0.0 1.0 0.00 0.01 0.01 96 1012.2
20240226143015 39 324 0.0 0.0 0.00 0.01 0.01 96 1012.1
20240226141512 39 324 0.0 0.0 0.00 0.01 0.01 97 1012.1
20240226140017 38 324 0.0 0.0 0.00 0.01 0.01 97 1012.0
20240226134509 38 324 0.0 0.0 0.00 0.01 0.01 97 1011.9
20240226133007 37 324 0.0 1.0 0.00 0.01 0.01 97 1011.8
20240226131508 37 283 0.0 0.0 0.00 0.01 0.01 97 1011.8
20240226130006 37 283 0.0 0.0 0.00 0.01 0.01 96 1011.6
20240226124514 38 281 0.0 0.0 0.00 0.01 0.01 97 1011.5
20240226123003 38 281 0.0 0.0 0.00 0.01 0.01 97 1011.4
20240226121503 37 281 0.0 0.0 0.00 0.01 0.01 97 1011.5
20240226120004 37 281 0.0 1.0 0.00 0.01 0.01 97 1011.4
20240226114502 37 281 0.0 1.0 0.00 0.01 0.01 97 1011.4
20240226113004 37 64 0.0 1.0 0.00 0.01 0.01 98 1011.2
20240226111559 37 62 0.0 1.0 0.00 0.01 0.01 98 1011.2
20240226110055 36 32 0.0 0.0 0.00 0.01 0.01 98 1011.2
20240226104553 35 340 0.0 1.0 0.00 0.01 0.01 98 1011.3
20240226103051 35 338 0.0 1.0 0.01 0.01 0.01 98 1011.3
20240226101550 34 338 0.0 0.0 0.01 0.01 0.01 98 1011.3
20240226100052 34 338 0.0 1.0 0.01 0.01 0.01 98 1011.3
20240226094548 34 51 0.0 0.0 0.01 0.01 0.01 98 1011.3
20240226093048 34 46 0.0 0.0 0.00 0.00 0.00 98 1011.2
20240226091546 34 68 0.0 1.0 0.00 0.00 0.00 98 1011.2
20240226090044 34 49 0.0 1.0 0.00 0.00 0.00 98 1010.9
20240226084551 33 80 0.0 0.0 0.00 0.00 0.00 98 1010.9
20240226083040 33 321 0.0 0.0 0.00 0.00 0.00 98 1010.6
20240226081538 33 320 0.0 0.0 0.00 0.00 0.00 98 1010.4
20240226080037 33 320 0.0 1.0 0.00 0.00 0.00 98 1010.3
20240226074536 32 111 0.0 0.0 0.00 0.00 0.00 98 1010.3
20240226073049 0 0.0 0.0 0.00 0.00 0.00 1010.1
20240226071536 0 0.0 0.0 0.00 0.00 0.00 1010.0
20240226070036 0 0.0 0.0 0.00 0.00 0.00 1009.9
20240226064538 0 0.0 0.0 0.00 0.00 0.00 1009.6
20240226063018 0 0.0 0.0 0.00 0.00 0.00 1009.6
20240226061515 0 0.0 0.0 0.00 0.00 0.00 1009.3
20240226060010 0 0.0 0.0 0.00 0.00 0.00 1009.2
20240226054508 0 0.0 0.0 0.00 0.00 0.00 1009.1
20240226053002 0 0.0 0.0 0.00 0.00 0.00 1009.0
20240226051600 0 0.0 0.0 0.00 0.00 0.00 1009.0
20240226050055 0 0.0 0.0 0.00 0.00 0.00 1008.9
20240226044551 0 0.0 0.0 0.00 0.00 0.00 1008.9